Terminal Aerodrome Forecast
Issued by NWS

Home | Current Version | Previous Version | Graphics & Text | Print | Product List | Glossary On
Versions: 1 2 3 4 5 6 7 8 9 10 11 12 13 14 15 16 17 18
000
FTUS43 KMPX 230500
TAFRNH
TAF
KRNH 230520Z 2306/2406 07012KT 3SM -RASN BR OVC009
     FM231000 05014KT 1 1/2SM -SN BR OVC005
     FM231400 03012KT 1/2SM SN FG VV002
     FM232000 35012KT 3SM -SN OVC006=

USA.gov is the U.S. government's official web portal to all federal, state and local government web resources and services.